Regional Weather Roundup
Issued by NWS

Home | Current Version | Previous Version | Graphics & Text | Print | Product List | Glossary On
Versions: 1 2 3 4 5 6 7 8 9 10 11 12 13 14 15 16 17 18 19 20 21 22 23 24 25 26 27 28 29 30 31 32 33 34 35 36 37 38 39 40 41 42 43 44 45 46 47 48 49 50
000
ASUS44 KMEG 230400
RWRTN
TENNESSEE HOURLY STATE WEATHER ROUNDUP
NATIONAL WEATHER SERVICE MEMPHIS TN
1100 PM CDT WED OCT 22 2014

TNZ002-004-019-021-049-052-054-088>092-230500-
WEST TENNESSEE

CITY           SKY/WX    TMP DP  RH WIND       PRES   REMARKS
MEMPHIS INTL   CLEAR     55  43  63 E7        30.18S
NWS MEMPHIS      N/A     52 N/A N/A MISG        N/A
JACKSON        CLEAR     46  43  89 CALM      30.20S
DYERSBURG      CLEAR     46  34  61 E5        30.22F
UNION CITY     CLEAR     43  43 100 N3        30.21S
PARIS          CLEAR     41  39  93 NE3       30.22S
LEXINGTON      CLEAR     43  41  93 CALM      30.19F
SAVANNAH       CLEAR     43  41  93 CALM      30.20S
$$

TNZ008-025-027-028-033-062-065-066-230500-
NORTH MIDDLE TENNESSEE

CITY           SKY/WX    TMP DP  RH WIND       PRES   REMARKS
NASHVILLE      CLEAR     50  43  77 NE5       30.23R
CLARKSVILLE    CLEAR     44  41  89 CALM      30.22S
COOKEVILLE     CLEAR     39  37  93 CALM      30.22S
CROSSVILLE     CLEAR     41  36  82 CALM      30.21F
$$

TNZ061-075-076-078-094-096-097-230500-
SOUTH MIDDLE TENNESSEE

CITY           SKY/WX    TMP DP  RH WIND       PRES   REMARKS
SHELBYVILLE    CLEAR     43  43 100 CALM      30.22R
$$

TNZ017-018-042-046-047-230500-
NORTHEAST TENNESSEE

CITY           SKY/WX    TMP DP  RH WIND       PRES   REMARKS
TRI CITIES     CLOUDY    48  41  76 W3        30.20F
ELIZABETHTON   CLOUDY    45  39  81 CALM      30.20S
$$

TNZ012-013-036-069-073-074-230500-
CENTRAL EAST TENNESSEE

CITY           SKY/WX    TMP DP  RH WIND       PRES   REMARKS
KNOXVILLE      PTCLDY    44  39  82 NE5       30.22S
OAK RIDGE      PTCLDY    43  39  86 CALM      30.24S
GATLINBURG     MOCLDY    41  37  87 CALM      30.22S
$$

TNZ083-085-099-230500-
SOUTHEAST TENNESSEE

CITY           SKY/WX    TMP DP  RH WIND       PRES   REMARKS
CHATTANOOGA    CLEAR     50  41  71 N12G18    30.21S
$$

SKY/WX REPORTED AS FAIR MEANS FEW OR NO CLOUDS BELOW
12 THOUSAND FEET.




USA.gov is the U.S. government's official web portal to all federal, state and local government web resources and services.